[[{"header":{"parameterUnit":"m.s-1","parameterCategory":1,"la1":30.2991,"la2":30.254,"lo1":-89.0895,"lo2":-89.0444,"dy":0.0017,"dx":0.0017,"nx":28,"ny":28,"refTime":"2025-06-04T03:00:00:Z","depth":0,"parameterNumber":2,"parameterNumberName":"U-component_of_WINDS"},"data":[0,0,0,0,0,0,0,0,0,0,0,0,0,0,0,0,0,0,0,0,0,0,0,0,0,0,0,0,0,0,0,0,0,0,0,0,0,0,0,0,0,0,0,0,0,0,0,0,0,0,0,0,0,0,0,0,0,0,-4.2415,-4.2416,0,-4.2501,-4.2501,-4.2502,-4.252,-4.252,-4.2519,-4.2518,-4.2604,-4.2607,-4.2609,0,0,0,0,0,0,0,0,0,0,0,0,0,-4.2269,-4.2272,-4.2415,-4.2416,-4.2417,-4.25,-4.2502,-4.2503,-4.252,-4.252,-4.2519,-4.2518,-4.2603,-4.2606,-4.261,0,0,0,0,0,0,0,0,0,0,0,0,0,-4.2341,-4.2273,-4.2415,-4.2436,-4.2439,-4.25,-4.2502,-4.2503,-4.252,-4.252,-4.2519,-4.2518,-4.2602,-4.2606,-4.261,-4.2656,0,0,-4.2623,-4.2625,0,0,0,0,0,0,0,0,-4.2337,-4.2347,-4.2432,-4.2435,-4.2438,-4.2499,-4.2481,-4.2554,-4.2521,-4.2489,-4.2518,-4.2517,-4.257,-4.2576,-4.2594,-4.266,-4.2663,-4.2624,-4.2626,-4.2628,-4.2629,0,0,0,0,0,0,0,-4.2332,-4.2343,-4.2449,-4.2433,-4.2437,-4.2442,-4.2451,-4.2495,-4.2534,-4.2492,-4.2494,-4.2504,-4.2571,-4.259,-4.2597,-4.2665,-4.2624,-4.2627,-4.263,-4.2632,-4.2775,-4.2776,0,0,0,0,0,0,-4.2324,-4.2339,-4.2446,-4.2452,-4.2384,-4.2445,-4.2456,-4.248,-4.2533,-4.2541,-4.2504,-4.2504,-4.2583,-4.2591,-4.26,-4.2657,-4.2628,-4.2632,-4.2635,-4.2774,-4.2775,-4.2777,0,0,0,0,0,0,-4.232,-4.2333,-4.2443,-4.2396,-4.241,-4.2449,-4.2476,-4.2482,-4.2502,-4.2543,-4.2549,-4.2517,-4.2583,-4.2594,-4.2642,-4.2661,-4.2634,-4.2638,-4.2772,-4.2774,-4.2776,-4.2773,0,0,0,0,0,0,-4.2316,-4.2332,-4.2348,-4.2396,-4.2413,-4.2483,-4.2478,-4.2485,-4.2509,-4.251,-4.2556,-4.2563,-4.2583,-4.2636,-4.2647,-4.2666,-4.2641,-4.2771,-4.2773,-4.2775,-4.2771,-4.2774,-4.2777,0,0,0,0,0,-4.2311,-4.2343,-4.2349,-4.2362,-4.2435,-4.2484,-4.2494,-4.2517,-4.2511,-4.2528,-4.2556,-4.2561,-4.2658,-4.2641,-4.2653,-4.2674,-4.277,-4.2772,-4.2775,-4.277,-4.2773,-4.2776,0,0,0,0,0,0,-4.2295,-4.235,-4.2357,-4.2406,-4.2441,-4.2487,-4.251,-4.252,-4.2556,-4.2555,-4.2582,-4.2593,-4.264,-4.2662,-4.2642,-4.2723,-4.2713,-4.2719,-4.2705,-4.2709,-4.2712,-4.2704,-4.2645,0,0,0,0,0,-4.2298,-4.2334,-4.238,-4.2418,-4.2436,-4.247,-4.2493,-4.2508,-4.2545,-4.2559,-4.259,-4.2625,-4.2664,-4.2688,-4.2726,-4.2776,-4.2787,-4.2797,-4.28,-4.2802,-4.2805,-4.2835,-4.284,-4.2786,-4.2786,-4.2786,0,0,-4.2302,-4.2337,-4.2357,-4.2416,-4.2445,-4.2482,-4.2482,-4.252,-4.2548,-4.2565,-4.2613,-4.2637,-4.2679,-4.2729,-4.2753,-4.2749,-4.2824,-4.2805,-4.2807,-4.2809,-4.2839,-4.2844,-4.2848,-4.2787,-4.2787,-4.2787,0,0,-4.2329,-4.2359,-4.2395,-4.2425,-4.247,-4.2493,-4.2503,-4.2549,-4.2566,-4.2616,-4.2629,-4.2664,-4.2729,-4.2759,-4.2783,-4.2827,-4.2834,-4.2839,-4.2852,-4.2881,-4.2885,-4.2889,-4.2905,-4.291,-4.2843,-4.2843,-4.2843,0,-4.2329,-4.2385,-4.2413,-4.2452,-4.2478,-4.2497,-4.2535,-4.2562,-4.2616,-4.2634,-4.263,-4.2715,-4.2744,-4.2803,-4.2814,-4.2833,-4.2844,-4.2832,-4.2883,-4.2887,-4.2891,-4.2906,-4.2912,-4.2843,-4.2843,-4.2843,-4.2843,0,-4.2383,-4.2423,-4.2447,-4.2501,-4.253,-4.2568,-4.2602,-4.2628,-4.2643,-4.2667,-4.2719,-4.2756,-4.2802,-4.2818,-4.2831,-4.2879,-4.2876,-4.2877,-4.2868,-4.2896,-4.2911,-4.2917,-4.2844,-4.2844,-4.2844,-4.2843,0,0,-4.2398,-4.247,-4.2478,-4.2504,-4.2557,-4.2588,-4.2629,-4.2675,-4.2698,-4.2736,-4.2771,-4.2829,-4.2831,-4.2858,-4.2876,-4.2902,-4.2936,-4.2901,-4.2902,-4.2905,-4.2992,-4.2989,-4.2995,-4.2943,-4.2944,-4.2945,-4.2988,0,-4.2431,-4.2503,-4.2531,-4.259,-4.2628,-4.265,-4.2685,-4.2722,-4.2747,-4.2783,-4.2812,-4.2852,-4.2853,-4.2869,-4.2896,-4.2926,-4.2954,-4.2924,-4.2975,-4.2976,-4.2961,-4.3003,-4.2999,-4.3038,-4.2994,-4.2995,-4.2996,0,-4.2478,-4.2518,-4.2581,-4.2633,-4.265,-4.2681,-4.2728,-4.2762,-4.2806,-4.2823,-4.2855,-4.2873,-4.2917,-4.2909,-4.2971,-4.295,-4.2974,-4.2992,-4.2994,-4.2998,-4.2986,-4.3006,-4.3051,-4.3056,-4.3006,-4.3005,-4.3004,0,-4.2482,-4.2553,-4.26,-4.2622,-4.2683,-4.2704,-4.2731,-4.2774,-4.2801,-4.2843,-4.2861,-4.2907,-4.2932,-4.2968,-4.2998,-4.2989,-4.3058,-4.3051,-4.3073,-4.3072,-4.3083,-4.3082,-4.313,-4.3102,-4.3102,-4.3102,-4.3102,0,-4.2514,-4.2552,-4.2603,-4.2632,-4.2676,-4.2709,-4.2751,-4.278,-4.2818,-4.2854,-4.2876,-4.2909,-4.2948,-4.2986,-4.3011,-4.3059,-4.307,-4.3085,-4.3091,-4.3082,-4.308,-4.3095,-4.3093,-4.3103,-4.3103,-4.3103,-4.3103,0,-4.2524,-4.256,-4.2613,-4.2669,-4.2684,-4.2713,-4.276,-4.279,-4.2819,-4.2863,-4.2876,-4.292,-4.2967,-4.3002,-4.3062,-4.3079,-4.313,-4.3136,-4.3115,-4.3117,-4.3136,-4.3134,-4.3195,-4.3205,-4.3171,-4.3172,-4.3172,0,-4.2542,-4.2572,-4.2631,-4.2657,-4.2684,-4.2725,-4.2754,-4.2789,-4.2818,-4.2873,-4.2896,-4.2945,-4.2985,-4.306,-4.3097,-4.3144,-4.3151,-4.317,-4.3158,-4.3149,-4.315,-4.3147,-4.315,-4.317,-4.317,-4.317,-4.317,0,-4.2569,-4.2586,-4.2627,-4.2675,-4.271,-4.2749,-4.2789,-4.2809,-4.2852,-4.2884,-4.2933,-4.2964,-4.3028,-4.3076,-4.3128,-4.3156,-4.317,-4.3175,-4.3182,-4.3172,-4.3158,-4.3165,-4.3117,-4.3172,-4.3172,-4.3172,-4.3172,-4.3172,-4.2583,-4.2611,-4.2658,-4.2703,-4.2738,-4.2776,-4.2807,-4.284,-4.2882,-4.2936,-4.2955,-4.3005,-4.3052,-4.3123,-4.3152,-4.3193,-4.3192,-4.3203,-4.3205,-4.3207,-4.3206,-4.3154,-4.3202,-4.3202,-4.3202,-4.3202,-4.3202,0,-4.261,-4.2643,-4.2685,-4.2741,-4.2777,-4.279,-4.2836,-4.2866,-4.291,-4.2952,-4.2992,-4.305,-4.3098,-4.3141,-4.3191,-4.3216,-4.3224,-4.3228,-4.3225,-4.3231,-4.3203,-4.3191,-4.322,-4.322,-4.322,-4.322,-4.322,-4.322,-4.2629,-4.2678,-4.2701,-4.2768,-4.28,-4.285,-4.2875,-4.2911,-4.2945,-4.3008,-4.3048,-4.3077,-4.312,-4.3174,-4.322,-4.3231,-4.3248,-4.325,-4.3263,-4.3235,-4.3233,-4.3231,-4.322,-4.3254,-4.3254,-4.3288,-4.3288,-4.3288]},{"header":{"parameterUnit":"m.s-1","parameterCategory":1,"la1":30.2991,"la2":30.254,"lo1":-89.0895,"lo2":-89.0444,"dy":0.0017,"dx":0.0017,"nx":28,"ny":28,"refTime":"2025-06-04T03:00:00:Z","depth":0,"parameterNumber":3,"parameterNumberName":"V-component_of_WINDS"},"data":[0,0,0,0,0,0,0,0,0,0,0,0,0,0,0,0,0,0,0,0,0,0,0,0,0,0,0,0,0,0,0,0,0,0,0,0,0,0,0,0,0,0,0,0,0,0,0,0,0,0,0,0,0,0,0,0,0,0,3.2915,3.2915,0,3.2963,3.2964,3.2964,3.3018,3.3019,3.3019,3.302,3.3064,3.3065,3.3065,0,0,0,0,0,0,0,0,0,0,0,0,0,3.2865,3.2866,3.2915,3.2916,3.2916,3.2963,3.2964,3.2964,3.3018,3.3019,3.302,3.302,3.3064,3.3065,3.3065,0,0,0,0,0,0,0,0,0,0,0,0,0,3.2897,3.2866,3.2915,3.2949,3.2952,3.2963,3.2964,3.2964,3.3017,3.3019,3.302,3.3021,3.3064,3.3065,3.3065,3.3045,0,0,3.3067,3.3068,0,0,0,0,0,0,0,0,3.2895,3.2899,3.2943,3.2946,3.295,3.2986,3.2962,3.2991,3.3017,3.2992,3.302,3.3022,3.3037,3.304,3.3046,3.3047,3.3049,3.3067,3.3068,3.3068,3.3068,0,0,0,0,0,0,0,3.2893,3.2897,3.2934,3.2944,3.2948,3.296,3.2966,3.2968,3.3007,3.2995,3.2999,3.3004,3.3039,3.3045,3.3048,3.305,3.3067,3.3068,3.3068,3.3069,3.3036,3.3035,0,0,0,0,0,0,3.2886,3.2895,3.2932,3.2935,3.2925,3.296,3.2966,3.2973,3.3007,3.3014,3.3003,3.3006,3.3044,3.3047,3.3049,3.3027,3.3068,3.3069,3.3069,3.3038,3.3036,3.3035,0,0,0,0,0,0,3.2885,3.2889,3.293,3.2916,3.2922,3.2959,3.2966,3.2973,3.298,3.3014,3.302,3.3002,3.3045,3.3048,3.3046,3.303,3.3069,3.307,3.3039,3.3037,3.3035,3.2984,0,0,0,0,0,0,3.2883,3.2888,3.2882,3.2916,3.2923,3.2927,3.2965,3.2973,3.2981,3.2986,3.3015,3.3021,3.3046,3.3045,3.3047,3.3031,3.307,3.3041,3.3038,3.3036,3.2987,3.298,3.2975,0,0,0,0,0,3.2881,3.2865,3.2881,3.2886,3.2916,3.2926,3.293,3.2961,3.298,3.2973,3.2995,3.302,3.3032,3.3044,3.3047,3.3031,3.3042,3.3039,3.3036,3.299,3.2982,3.2975,0,0,0,0,0,0,3.2826,3.287,3.2889,3.2883,3.2901,3.2936,3.2928,3.2952,3.2963,3.2967,3.3004,3.3009,3.3002,3.3017,3.303,3.3013,3.304,3.3038,3.3004,3.2997,3.299,3.2986,3.3071,0,0,0,0,0,3.2814,3.282,3.2857,3.2848,3.2856,3.289,3.2896,3.2918,3.2938,3.2945,3.2967,3.2983,3.2991,3.2995,3.3003,3.299,3.2996,3.298,3.2974,3.2969,3.2966,3.2959,3.2952,3.3025,3.3026,3.3026,0,0,3.2787,3.2812,3.2813,3.2838,3.2854,3.2858,3.2896,3.2899,3.2902,3.2945,3.2944,3.2961,3.2982,3.2973,3.2971,3.2985,3.2947,3.2965,3.2961,3.2961,3.2955,3.2948,3.2942,3.3024,3.3024,3.3024,0,0,3.2741,3.2761,3.2755,3.2772,3.2797,3.282,3.2818,3.285,3.2863,3.2863,3.2895,3.2899,3.2911,3.2924,3.2932,3.2892,3.2915,3.2893,3.286,3.2853,3.2847,3.2842,3.2826,3.282,3.2891,3.289,3.289,0,3.2704,3.2714,3.2749,3.275,3.2759,3.28,3.2794,3.2808,3.2833,3.2838,3.2854,3.2871,3.2887,3.2882,3.2873,3.2878,3.2877,3.289,3.2845,3.2841,3.2837,3.2822,3.2816,3.2888,3.2888,3.2888,3.2888,0,3.2667,3.2672,3.2665,3.2691,3.2699,3.2696,3.273,3.2734,3.2756,3.2776,3.2776,3.2798,3.2811,3.2812,3.2832,3.281,3.2818,3.2839,3.2867,3.2826,3.2813,3.2808,3.2884,3.2885,3.2885,3.2886,0,0,3.2586,3.2633,3.2629,3.2641,3.2672,3.2676,3.2675,3.269,3.2692,3.2709,3.2707,3.2717,3.2737,3.2747,3.2769,3.2763,3.2728,3.2785,3.2786,3.2773,3.2702,3.2685,3.2678,3.2744,3.2743,3.2742,3.27,0,3.2544,3.2547,3.2579,3.2571,3.2576,3.2615,3.2614,3.2632,3.2651,3.2657,3.2678,3.2684,3.271,3.2716,3.2712,3.2733,3.2714,3.2737,3.2741,3.2741,3.2734,3.2672,3.2654,3.2613,3.2696,3.2695,3.2694,0,3.2496,3.2512,3.2505,3.2536,3.2539,3.2538,3.2554,3.256,3.258,3.2595,3.2605,3.2631,3.263,3.2657,3.2656,3.2671,3.2675,3.2685,3.2684,3.2685,3.2714,3.2669,3.2601,3.2594,3.2687,3.2687,3.2688,0,3.2437,3.2456,3.2454,3.2463,3.25,3.2498,3.2512,3.2535,3.2541,3.2555,3.2559,3.2572,3.2579,3.2587,3.2615,3.2632,3.261,3.264,3.262,3.2619,3.2613,3.2613,3.2543,3.2617,3.2617,3.2617,3.2617,0,3.2386,3.238,3.2428,3.2427,3.2421,3.2457,3.2449,3.2468,3.2487,3.2489,3.2523,3.2524,3.2561,3.2566,3.2587,3.2582,3.2585,3.2596,3.2601,3.2592,3.259,3.2594,3.2597,3.2616,3.2616,3.2616,3.2617,0,3.2319,3.2351,3.2351,3.2386,3.2395,3.2389,3.2418,3.2417,3.2439,3.2441,3.2443,3.2477,3.2484,3.2513,3.2526,3.2541,3.2528,3.254,3.2521,3.2525,3.2504,3.2505,3.2433,3.2425,3.2505,3.2504,3.2503,0,3.2284,3.228,3.2316,3.232,3.2334,3.2341,3.2348,3.2384,3.239,3.2413,3.2409,3.2419,3.2429,3.2438,3.2462,3.2472,3.2484,3.2458,3.2486,3.2476,3.2482,3.2482,3.2481,3.2452,3.2451,3.245,3.2449,0,3.2218,3.2235,3.2245,3.2261,3.227,3.2283,3.2299,3.23,3.2339,3.2344,3.2353,3.236,3.2375,3.2383,3.2398,3.2411,3.2436,3.2441,3.2437,3.2426,3.2415,3.242,3.2504,3.2442,3.2443,3.2443,3.2443,3.2444,3.2166,3.2164,3.2189,3.2199,3.2215,3.2229,3.223,3.2253,3.2261,3.2276,3.2296,3.2302,3.2322,3.2344,3.2355,3.2359,3.2373,3.2367,3.2366,3.2363,3.2358,3.2416,3.2362,3.2362,3.2362,3.2363,3.2363,0,3.2101,3.2119,3.2129,3.215,3.2158,3.2183,3.2201,3.2205,3.221,3.2228,3.2237,3.2246,3.2255,3.228,3.2291,3.2289,3.2301,3.2291,3.2291,3.2293,3.2346,3.2348,3.2281,3.2281,3.2281,3.2281,3.2281,3.2281,3.2069,3.2067,3.2086,3.2092,3.211,3.2117,3.2125,3.2138,3.2152,3.2161,3.2169,3.2186,3.2206,3.2219,3.2228,3.2235,3.2237,3.2223,3.2233,3.2282,3.2289,3.2297,3.2299,3.2223,3.2223,3.218,3.218,3.2179]}]]